SCP
-0 0 0 0 0 0 0 0 0 0 0 0 0 0 0 0 0 0 0 0 -0 -0 -0 -0 -0 -0 -0 -0 -0 -0 -0 -0 -0 -0 0 0 0 0
-0 -0 -0 0 0 0 0 0 0 0 0 0 0 0 0 0 0 0 0 0 0 -0 -0 -0 -0 -0 -0 -0 -0 -0 -0 -0 -0 0 0 0 0 0
0 0 0 0 0 0 0 0 0 0 0 0 0 0 0 0 0 0 0 0 0 -0 -0 -0 -0 -0 -0 -0 -0 -0 -0 -0 0 0 0 0 0 0
0 0 0 0 0 0 0 0 0 0 0 0 0 0 0 0 0 0 0 0 0 -0 -0 0 0 -0 -0 -0 -0 -0 -0 -0 0 0 0 0 0 0
0 0 0 0 0 0 0 0 0 0 0 0 0 0 0 0 0 0 0 0 0 0 0 -0 -0 0 -0 -0 -0 -0 -0 0 0 0 0 0 0 0
-0 -0 -0 0 0 0 0 0 -0 0 0 0 0 0 0 0 0 0 0 0 0 0 0 0 0 0 -0 -0 -0 -0 0 0 0 0 0 0 0 0
-0 -0 0 0 -0 -0 -0 -0 -0 0 0 0 0 0 0 0 0 0 0 0 0 0 0 0 0 0 0 0 0 0 0 0 0 0 0 0 0 0
0 -0 0 0 0 -0 -0 -0 -0 -0 -0 0 0 0 0 0 0 0 0 0 0 0 0 0 0 0 0 0 0 0 0 0 0 0 0 0 0 0
-0 -0 -0 0 -0 -0 -0 -0 -0 -0 -0 -0 -0 -0 -0 0 0 0 0 0 0 0 0 0 0 0 0 0 0 0 0 0 0 0 0 0 0 0
0 -0 -0 0 0 0 -0 0 -0 -0 0 0 -0 -0 0 0 0 0 0 0 0 0 0 0 0 0 0 0 0 0 0 0 0 0 0 0 0 0
-0 -0 -0 -0 -0 -0 -0 0 0 0 -0 0 0 0 -0 -0 0 0 0 0 0 0 0 0 0 0 0 0 0 0 0 0 0 0 0 0 0 0
0 -0 -0 -0 -0 0 -0 -0 -0 -0 0 0 0 0 -0 0 -0 0 0 0 0 0 0 0 0 0 0 0 0 0 0 0 0 0 0 0 0 0
-0 -0 -0 -0 0 -0 -0 -0 0 0 0 0 0 0 0 0 0 0 0 0 0 0 0 0 0 0 0 0 0 0 0 0 0 0 0 0 0 0
-0 -0 0 -0 -0 0 0 -0 -0 0 0 0 0 0 0 0 0 0 0 0 0 0 0 0 0 0 0 0 0 0 0 0 0 0 0 0 0 0
0 0 0 0 0 0 0 -0 0 0 0 0 0 0 0 0 0 0 0 0 0 0 0 0 0 0 0 0 0 0 0 0 0 0 0 0 0 0
0 0 0 0 0 0 0 0 0 0 0 0 0 0 0 0 0 0 0 0 0 0 0 0 0 0 0 0 0 0 0 0 0 0 0 0 0 0
0 0 0 0 0 0 0 0 0 0 0 0 0 0 0 0 0 0 0 0 0 0 0 0 0 0 0 0 0 0 0 0 0 0 0 0 0 0
0 0 0 0 0 0 0 0 0 0 0 0 0 0 0 0 0 0 0 0 0 0 0 0 0 0 0 0 0 0 0 0 0 0 0 0 0 0
0 0 0 0 0 0 0 0 0 0 0 0 0 0 0 0 0 0 0 0 0 0 0 0 0 0 0 0 0 0 0 0 0 0 0 0 0 0
0 0 0 0 0 0 0 0 0 0 0 0 0 0 0 0 0 0 0 0 0 0 0 0 0 0 0 0 0 0 0 0 0 0 0 0 0 0
0 0 0 0 0 0 0 0 0 0 0 0 0 0 0 0 0 0 0 0 0 0 0 0 0 0 0 0 0 0 0 0 0 0 0 0 0 0
0 0 0 0 0 0 0 0 0 0 0 0 0 0 0 0 0 0 0 0 0 0 0 0 0 0 0 0 0 0 0 0 0 0 0 0 0 0
0 0 0 0 0 0 0 0 0 0 0 0 0 0 0 0 0 0 0 0 0 0 0 0 0 0 0 0 0 0 0 0 0 0 0 0 0 0
Wind_Speed_500mb
24 20 35 49 47 53 55 54 70 50 55 64 71 66 60 52 47 43 38 30 22 17 17 10 10 13 18 20 17 21 22 19 22 25 31 21 38 37
21 28 41 42 46 50 50 58 56 71 57 61 66 62 54 48 43 37 32 24 20 17 14 12 12 14 18 18 16 16 14 18 20 22 22 31 35 36
23 22 20 35 47 57 57 48 50 50 60 61 62 58 54 46 37 28 24 22 19 16 11 10 13 16 19 12 13 13 13 16 22 20 26 28 27 32
34 30 25 33 47 51 36 24 24 49 53 72 61 54 47 41 34 28 26 21 19 14 8 6 13 16 8 12 8 11 16 22 20 23 22 24 27 31
26 33 32 40 47 46 39 33 45 52 65 62 60 53 46 38 35 28 24 22 17 10 4 2 9 9 5 5 7 15 22 20 23 24 21 24 27 31
19 30 36 42 45 49 30 26 41 59 58 63 60 56 50 45 33 31 31 24 16 14 6 9 11 3 1 1 13 22 21 20 23 19 20 24 27 32
24 27 33 40 42 49 32 27 31 54 62 68 66 61 56 48 43 38 32 28 20 13 3 9 2 4 6 7 19 23 19 17 17 16 19 23 28 31
32 38 39 42 44 41 33 26 29 40 57 60 57 55 52 50 46 42 37 33 26 10 10 7 6 6 8 16 20 20 16 15 15 16 19 23 27 29
38 41 43 42 43 40 31 28 30 32 40 44 49 50 50 47 47 42 39 32 17 16 20 13 12 8 10 21 20 17 13 13 12 15 18 23 26 28
42 36 40 40 41 40 37 36 36 37 39 43 44 48 49 48 45 38 39 37 23 21 26 18 18 12 15 18 20 14 11 10 10 12 17 22 25 26
48 36 34 43 45 44 43 40 39 36 37 39 43 49 47 46 45 40 44 42 32 30 30 24 23 19 17 15 14 11 10 8 8 11 16 19 23 25
41 42 36 42 48 51 48 41 39 33 35 37 40 39 38 43 41 39 35 39 34 33 36 34 29 25 20 22 17 12 9 5 6 10 15 17 19 22
39 42 43 42 42 43 43 40 35 29 33 36 41 45 49 48 49 46 42 38 36 36 17 31 28 33 25 25 24 16 11 6 2 7 12 15 17 20
39 38 42 44 45 46 44 42 36 32 34 40 41 44 49 54 54 52 50 47 43 37 29 22 28 33 32 16 27 22 15 11 4 2 8 12 16 19
47 41 39 42 43 43 46 45 41 41 43 46 45 43 45 47 53 58 56 52 49 45 40 34 27 28 37 29 27 20 20 13 7 2 5 10 15 19
46 43 46 49 50 48 48 49 49 48 48 49 47 42 44 51 56 58 57 56 53 52 48 38 31 35 37 33 29 25 22 13 11 7 7 8 11 15
53 53 54 57 57 57 55 53 52 54 54 52 50 48 50 54 57 58 58 58 58 56 52 45 39 41 42 39 35 31 24 19 16 12 9 9 11 13
56 61 64 59 60 59 60 57 52 56 61 57 57 56 52 52 55 57 59 59 56 54 52 48 47 49 51 47 40 34 30 26 21 16 12 11 11 12
51 58 60 64 64 63 61 61 62 62 62 64 64 61 58 56 56 59 58 58 58 57 53 52 51 53 56 55 43 39 36 31 26 21 17 14 12 12
50 51 62 70 72 75 74 69 74 70 71 75 74 70 66 61 60 61 61 61 58 57 57 56 55 54 53 46 39 37 40 36 29 26 21 17 14 13
46 56 55 57 70 71 77 76 76 81 80 76 79 77 70 65 62 61 60 59 57 58 58 57 52 55 56 53 43 39 40 38 35 31 25 20 18 15
43 46 57 62 67 67 68 76 82 77 78 81 83 82 74 68 63 60 59 60 58 58 57 57 60 65 65 61 50 41 42 42 38 34 29 23 18 12
61 64 52 57 60 67 68 69 68 72 77 76 84 84 77 66 64 61 60 62 63 62 60 61 68 72 71 65 56 47 43 45 43 38 31 26 23 21
Wind_Direction_500mb
140 154 150 168 166 169 160 158 147 129 119 128 129 140 146 146 144 145 140 134 122 113 109 103 77 42 24 13 19 14 46 52 65 66 67 55 64 56
126 127 156 158 170 173 169 158 154 150 134 139 140 146 152 155 153 147 142 135 120 114 108 83 58 35 7 10 31 62 47 60 64 60 57 64 61 58
173 158 147 169 171 172 161 154 157 161 152 146 150 153 156 157 156 151 150 138 123 110 101 87 53 12 2 51 57 51 57 60 59 60 64 63 57 54
190 199 195 169 176 173 168 176 190 180 175 157 153 156 158 160 163 165 162 145 136 122 106 77 30 357 33 48 52 56 71 75 75 67 58 52 46 46
188 191 184 168 180 178 169 174 185 176 167 167 165 167 167 168 172 171 168 162 154 132 127 4 345 354 36 32 66 91 88 90 78 65 54 49 42 36
173 174 174 172 179 176 163 166 181 183 186 177 175 177 177 173 182 182 174 168 163 142 125 317 322 2 3 88 107 104 97 87 76 65 51 44 38 32
181 175 170 177 182 188 194 193 188 194 188 183 178 183 184 183 189 188 187 178 169 158 236 273 22 116 176 142 121 108 104 92 76 60 48 40 35 29
190 180 181 188 192 199 209 215 222 201 193 195 193 192 195 196 198 199 198 188 172 189 223 233 163 185 149 137 120 118 110 90 75 54 43 37 32 27
199 189 189 191 199 204 208 208 203 211 217 212 216 209 206 215 212 204 202 204 211 221 205 196 188 190 152 140 130 119 108 88 66 48 40 37 29 23
187 195 203 200 197 204 199 196 202 209 217 217 220 221 219 215 213 213 203 201 203 212 209 213 200 195 171 153 141 136 118 91 63 46 39 32 24 21
211 203 210 205 196 191 194 202 206 216 220 218 225 231 232 225 220 209 207 205 209 217 215 223 209 203 183 166 155 145 123 97 66 46 39 30 22 16
202 208 213 203 198 194 205 215 225 235 225 210 208 209 209 214 216 218 224 220 220 222 219 216 216 207 203 197 182 168 145 113 55 39 38 30 18 13
199 195 195 196 206 214 221 223 234 238 223 219 212 202 198 201 205 209 214 219 231 238 247 227 224 211 208 206 196 188 179 163 110 43 29 25 16 11
204 205 207 206 212 217 223 225 225 230 227 217 212 211 204 200 202 206 211 214 223 233 237 240 237 225 217 230 198 196 192 190 168 50 17 7 9 8
212 217 222 226 226 229 226 226 217 220 218 218 216 214 214 209 204 206 210 215 221 229 235 236 245 226 217 225 215 206 204 195 199 246 320 346 359 3
220 225 229 230 234 238 229 223 220 220 221 220 219 219 216 211 209 210 214 218 221 226 230 232 233 221 219 223 210 210 204 203 208 237 286 318 340 356
229 225 229 231 231 228 228 225 224 223 221 221 220 221 219 217 215 215 219 223 226 228 230 230 227 218 209 209 216 205 209 214 217 233 264 298 328 346
234 229 232 232 233 230 234 229 232 231 231 225 222 222 226 225 223 223 224 227 230 231 232 230 227 217 208 207 211 209 213 214 220 229 253 280 309 334
241 240 239 240 235 238 240 242 241 234 236 228 228 225 225 227 227 227 228 229 228 228 227 229 228 221 215 213 215 213 214 218 222 227 241 265 290 312
253 248 245 242 244 244 245 242 245 239 240 234 226 225 226 228 229 229 230 231 231 229 226 226 223 220 220 222 224 222 217 219 221 228 238 250 270 285
265 259 259 256 248 246 246 248 248 248 241 236 232 226 227 228 230 232 234 235 234 232 230 229 221 215 214 212 218 222 220 220 223 228 237 246 262 277
267 268 256 254 252 248 246 243 248 250 246 241 234 230 227 230 233 234 236 233 233 233 230 226 218 212 212 214 219 226 225 220 220 226 236 243 254 264
264 260 273 259 253 254 250 248 246 247 247 245 235 231 228 229 237 236 236 235 233 230 226 223 216 214 213 215 219 226 225 224 225 228 234 239 249 258
Wind_Speed_850mb
24 20 35 49 47 53 55 54 70 50 55 64 71 66 60 52 47 43 38 30 22 17 17 10 10 13 18 20 17 21 22 19 22 25 31 21 38 37
21 28 41 42 46 50 50 58 56 71 57 61 66 62 54 48 43 37 32 24 20 17 14 12 12 14 18 18 16 16 14 18 20 22 22 31 35 36
23 22 20 35 47 57 57 48 50 50 60 61 62 58 54 46 37 28 24 22 19 16 11 10 13 16 19 12 13 13 13 16 22 20 26 28 27 32
34 30 25 33 47 51 36 24 24 49 53 72 61 54 47 41 34 28 26 21 19 14 8 6 13 16 8 12 8 11 16 22 20 23 22 24 27 31
26 33 32 40 47 46 39 33 45 52 65 62 60 53 46 38 35 28 24 22 17 10 4 2 9 9 5 5 7 15 22 20 23 24 21 24 27 31
19 30 36 42 45 49 30 26 41 59 58 63 60 56 50 45 33 31 31 24 16 14 6 9 11 3 1 1 13 22 21 20 23 19 20 24 27 32
24 27 33 40 42 49 32 27 31 54 62 68 66 61 56 48 43 38 32 28 20 13 3 9 2 4 6 7 19 23 19 17 17 16 19 23 28 31
32 38 39 42 44 41 33 26 29 40 57 60 57 55 52 50 46 42 37 33 26 10 10 7 6 6 8 16 20 20 16 15 15 16 19 23 27 29
38 41 43 42 43 40 31 28 30 32 40 44 49 50 50 47 47 42 39 32 17 16 20 13 12 8 10 21 20 17 13 13 12 15 18 23 26 28
42 36 40 40 41 40 37 36 36 37 39 43 44 48 49 48 45 38 39 37 23 21 26 18 18 12 15 18 20 14 11 10 10 12 17 22 25 26
48 36 34 43 45 44 43 40 39 36 37 39 43 49 47 46 45 40 44 42 32 30 30 24 23 19 17 15 14 11 10 8 8 11 16 19 23 25
41 42 36 42 48 51 48 41 39 33 35 37 40 39 38 43 41 39 35 39 34 33 36 34 29 25 20 22 17 12 9 5 6 10 15 17 19 22
39 42 43 42 42 43 43 40 35 29 33 36 41 45 49 48 49 46 42 38 36 36 17 31 28 33 25 25 24 16 11 6 2 7 12 15 17 20
39 38 42 44 45 46 44 42 36 32 34 40 41 44 49 54 54 52 50 47 43 37 29 22 28 33 32 16 27 22 15 11 4 2 8 12 16 19
47 41 39 42 43 43 46 45 41 41 43 46 45 43 45 47 53 58 56 52 49 45 40 34 27 28 37 29 27 20 20 13 7 2 5 10 15 19
46 43 46 49 50 48 48 49 49 48 48 49 47 42 44 51 56 58 57 56 53 52 48 38 31 35 37 33 29 25 22 13 11 7 7 8 11 15
53 53 54 57 57 57 55 53 52 54 54 52 50 48 50 54 57 58 58 58 58 56 52 45 39 41 42 39 35 31 24 19 16 12 9 9 11 13
56 61 64 59 60 59 60 57 52 56 61 57 57 56 52 52 55 57 59 59 56 54 52 48 47 49 51 47 40 34 30 26 21 16 12 11 11 12
51 58 60 64 64 63 61 61 62 62 62 64 64 61 58 56 56 59 58 58 58 57 53 52 51 53 56 55 43 39 36 31 26 21 17 14 12 12
50 51 62 70 72 75 74 69 74 70 71 75 74 70 66 61 60 61 61 61 58 57 57 56 55 54 53 46 39 37 40 36 29 26 21 17 14 13
46 56 55 57 70 71 77 76 76 81 80 76 79 77 70 65 62 61 60 59 57 58 58 57 52 55 56 53 43 39 40 38 35 31 25 20 18 15
43 46 57 62 67 67 68 76 82 77 78 81 83 82 74 68 63 60 59 60 58 58 57 57 60 65 65 61 50 41 42 42 38 34 29 23 18 12
61 64 52 57 60 67 68 69 68 72 77 76 84 84 77 66 64 61 60 62 63 62 60 61 68 72 71 65 56 47 43 45 43 38 31 26 23 21
Wind_Direction_850mb
140 154 150 168 166 169 160 158 147 129 119 128 129 140 146 146 144 145 140 134 122 113 109 103 77 42 24 13 19 14 46 52 65 66 67 55 64 56
126 127 156 158 170 173 169 158 154 150 134 139 140 146 152 155 153 147 142 135 120 114 108 83 58 35 7 10 31 62 47 60 64 60 57 64 61 58
173 158 147 169 171 172 161 154 157 161 152 146 150 153 156 157 156 151 150 138 123 110 101 87 53 12 2 51 57 51 57 60 59 60 64 63 57 54
190 199 195 169 176 173 168 176 190 180 175 157 153 156 158 160 163 165 162 145 136 122 106 77 30 357 33 48 52 56 71 75 75 67 58 52 46 46
188 191 184 168 180 178 169 174 185 176 167 167 165 167 167 168 172 171 168 162 154 132 127 4 345 354 36 32 66 91 88 90 78 65 54 49 42 36
173 174 174 172 179 176 163 166 181 183 186 177 175 177 177 173 182 182 174 168 163 142 125 317 322 2 3 88 107 104 97 87 76 65 51 44 38 32
181 175 170 177 182 188 194 193 188 194 188 183 178 183 184 183 189 188 187 178 169 158 236 273 22 116 176 142 121 108 104 92 76 60 48 40 35 29
190 180 181 188 192 199 209 215 222 201 193 195 193 192 195 196 198 199 198 188 172 189 223 233 163 185 149 137 120 118 110 90 75 54 43 37 32 27
199 189 189 191 199 204 208 208 203 211 217 212 216 209 206 215 212 204 202 204 211 221 205 196 188 190 152 140 130 119 108 88 66 48 40 37 29 23
187 195 203 200 197 204 199 196 202 209 217 217 220 221 219 215 213 213 203 201 203 212 209 213 200 195 171 153 141 136 118 91 63 46 39 32 24 21
211 203 210 205 196 191 194 202 206 216 220 218 225 231 232 225 220 209 207 205 209 217 215 223 209 203 183 166 155 145 123 97 66 46 39 30 22 16
202 208 213 203 198 194 205 215 225 235 225 210 208 209 209 214 216 218 224 220 220 222 219 216 216 207 203 197 182 168 145 113 55 39 38 30 18 13
199 195 195 196 206 214 221 223 234 238 223 219 212 202 198 201 205 209 214 219 231 238 247 227 224 211 208 206 196 188 179 163 110 43 29 25 16 11
204 205 207 206 212 217 223 225 225 230 227 217 212 211 204 200 202 206 211 214 223 233 237 240 237 225 217 230 198 196 192 190 168 50 17 7 9 8
212 217 222 226 226 229 226 226 217 220 218 218 216 214 214 209 204 206 210 215 221 229 235 236 245 226 217 225 215 206 204 195 199 246 320 346 359 3
220 225 229 230 234 238 229 223 220 220 221 220 219 219 216 211 209 210 214 218 221 226 230 232 233 221 219 223 210 210 204 203 208 237 286 318 340 356
229 225 229 231 231 228 228 225 224 223 221 221 220 221 219 217 215 215 219 223 226 228 230 230 227 218 209 209 216 205 209 214 217 233 264 298 328 346
234 229 232 232 233 230 234 229 232 231 231 225 222 222 226 225 223 223 224 227 230 231 232 230 227 217 208 207 211 209 213 214 220 229 253 280 309 334
241 240 239 240 235 238 240 242 241 234 236 228 228 225 225 227 227 227 228 229 228 228 227 229 228 221 215 213 215 213 214 218 222 227 241 265 290 312
253 248 245 242 244 244 245 242 245 239 240 234 226 225 226 228 229 229 230 231 231 229 226 226 223 220 220 222 224 222 217 219 221 228 238 250 270 285
265 259 259 256 248 246 246 248 248 248 241 236 232 226 227 228 230 232 234 235 234 232 230 229 221 215 214 212 218 222 220 220 223 228 237 246 262 277
267 268 256 254 252 248 246 243 248 250 246 241 234 230 227 230 233 234 236 233 233 233 230 226 218 212 212 214 219 226 225 220 220 226 236 243 254 264
264 260 273 259 253 254 250 248 246 247 247 245 235 231 228 229 237 236 236 235 233 230 226 223 216 214 213 215 219 226 225 224 225 228 234 239 249 258